Regional Weather Roundup
Issued by NWS

Home | Current Version | Previous Version | Graphics & Text | Print | Product List | Glossary On
Versions: 1 2 3 4 5 6 7 8 9 10 11 12 13 14 15 16 17 18 19 20 21 22 23 24 25 26 27 28 29 30 31 32 33 34 35 36 37 38 39 40 41 42 43 44 45 46 47 48 49 50
000
ASUS43 KIND 230209
RWRIN

WEATHER ROUNDUP FOR INDIANA
NATIONAL WEATHER SERVICE INDIANAPOLIS IN
1000 PM EDT SAT APR 22 2017

NOTE: "FAIR" INDICATES FEW OR NO CLOUDS BELOW 12,000 FEET WITH NO
SIGNIFICANT WEATHER AND/OR OBSTRUCTIONS TO VISIBILITY.

* - STATION DOES NOT REPORT WEATHER SUCH AS PRECIPITATION OR FOG.

+ - STATION NOT QUALITY CONTROLLED BY THE NATIONAL WEATHER SERVICE.
    USE DATA WITH CAUTION...ESPECIALLY DEWPOINT AND RELATIVE
    HUMIDITY OBSERVATIONS.

INZ001>003-010>013-019-020-230300-
NORTHWEST INDIANA

CITY           SKY/WX    TMP DP  RH WIND       PRES   REMARKS
GARY /AIRPORT/ CLEAR     45  34  65 CALM      30.17R
KNOX *+        CLEAR     43   5  21 N6        30.14R
LA PORTE +     CLEAR     45  28  51 N10       30.14S
MICHIGAN CITY+ CLEAR     41  32  70 CALM      30.16R
MONTICELLO +   CLEAR     49  31  49 N9        30.11R
RENSSELAER +   CLEAR     45  28  53 N8        30.14R
VALPARAISO     CLEAR     44  30  57 N5        30.15R

$$

LMZ046-743>745-230300-
SOUTHERN LAKE MICHIGAN

STATION/POSITION TIME  TEMP    WIND        PRES    WAVE
                       AIR SEA DIR/SP/G            HT
                 (UTC) (F)     (DEG/KT/KT) (MB)    (FT)
BURNS HARBOR     0140   46      50/  8/ 11 1021.3F
MICHIGAN CITY    0140   45      30/ 10/ 12   N/A

$$

INZ004-005-014>016-021>024-230300-
NORTH CENTRAL INDIANA

CITY           SKY/WX    TMP DP  RH WIND       PRES   REMARKS
GOSHEN         CLEAR     50  32  50 NE3       30.12R
LOGANSPORT +   PTCLDY    48  36  61 E3        30.12R
PERU/GRISSOM   CLEAR     51  35  54 E6        30.10R
ROCHESTER +    CLEAR     50  32  50 N7        30.12R
SOUTH BEND     CLEAR     44  28  53 N9        30.15R
WARSAW +       CLEAR     52  32  46 NE3       30.12R

$$

INZ006>009-017-018-025>027-230300-
NORTHEAST INDIANA

CITY           SKY/WX    TMP DP  RH WIND       PRES   REMARKS
ANGOLA *+      CLEAR     48  37  66 N3        30.12R
AUBURN +       CLEAR     45  36  70 CALM      30.13R
FORT WAYNE     PTCLDY    47  35  63 E7        30.13R
HUNTINGTON +   CLEAR     49  34  56 E3        30.12R
KENDALLVILLE + CLEAR     51  33  50 CALM      30.12R

$$

INZ028-029-035-036-043>045-051>053-230300-
WEST CENTRAL INDIANA

CITY           SKY/WX    TMP DP  RH WIND       PRES   REMARKS
CRAWFORDSVL +  PTCLDY    46  36  69 NE3       30.09R
GREENCASTLE +  PTCLDY    46  34  61 NE6       30.09R
LAFAYETTE      CLEAR     51  33  50 N12       30.10R
TERRE HAUTE    PTCLDY    50  34  54 NE8       30.07R

$$

INZ030>032-037>040-046>048-054>057-064-065-230300-
CENTRAL INDIANA

CITY           SKY/WX    TMP DP  RH WIND       PRES   REMARKS
CP ATTERBURY + CLEAR     50  34  53 NE7       30.08R
COLUMBUS       CLEAR     48  32  53 NE9       30.06R
FISHERS *+     PTCLDY    46  37  71 NE3       30.09R
FRANKFORT +    CLEAR     52  37  56 E7        30.11S
GREENWOOD *+   PTCLDY    51  28  41 NE14      30.08R
INDIANAPOLIS   CLOUDY    51  31  46 NE9       30.08R
-EAGLE CREEK   CLOUDY    51  33  50 MISG      30.08R
KOKOMO +       CLEAR     49  36  61 NE6       30.11R
MARION +       PTCLDY    48  36  61 NE5       30.11S
MT COMFORT *+  PTCLDY    45  32  61 NE7       30.09R
SHELBYVILLE    CLEAR     51  32  48 NE9       30.07R
ZIONSVILLE +   PTCLDY    47  34  61 NE6       30.09S

$$

INZ033-034-041-042-049-050-058-059-230300-
EAST CENTRAL INDIANA

CITY           SKY/WX    TMP DP  RH WIND       PRES   REMARKS
MUNCIE         PTCLDY    50  32  50 E10       30.10R
RICHMOND +     CLEAR     45  34  65 NE9       30.08R

$$

INZ060-061-067>069-081>083-085>088-230300-
SOUTHWEST INDIANA

CITY           SKY/WX    TMP DP  RH WIND       PRES   REMARKS
EVANSVILLE     CLOUDY    52  42  69 NE8       30.03R
HUNTINGBURG *+ CLOUDY    52  41  66 NE9       30.03R
WASHINGTON +   CLEAR     51  36  57 MISG      30.04R

$$

INZ062-063-066-070>080-084-089>092-230300-
SOUTH CENTRAL AND SOUTHEAST INDIANA

CITY           SKY/WX    TMP DP  RH WIND       PRES   REMARKS
BEDFORD +      CLEAR     50  36  57 NE6       30.03
BLOOMINGTON    CLEAR     51  34  52 NE9       30.05R
MADISON *+     CLEAR     46  36  66 NE3       30.06R
SEYMOUR +      CLEAR     52  36  54 NE12      30.04

$$





USA.gov is the U.S. government's official web portal to all federal, state and local government web resources and services.